CAPE
0 0 1 30 30 15 0 0 0 0 0 0 0 0 0 0 0 0 0 0 0 0 0 0 0 0 0 0 0 0 0 0
0 0 0 2 53 22 10 0 0 0 0 0 0 0 0 0 0 0 0 0 0 0 0 0 0 0 0 0 0 0 0 0
0 0 0 0 11 56 43 4 0 0 0 0 0 0 0 0 0 0 0 0 0 0 0 0 0 0 0 0 0 0 0 0
0 0 0 0 0 37 92 77 8 0 0 0 0 0 0 0 0 0 0 0 0 0 0 0 0 0 0 0 0 0 0 0
0 0 0 0 0 19 113 101 56 1 0 0 0 0 0 0 0 0 0 0 0 0 0 0 0 0 0 0 0 0 0 0
0 0 0 0 0 0 47 151 121 54 1 0 0 0 0 0 0 0 0 0 0 0 0 0 0 0 0 0 0 0 0 0
0 0 0 0 0 0 0 37 162 194 87 11 0 0 0 0 0 0 0 0 0 0 0 0 0 0 0 0 0 0 0 0
0 0 0 0 0 0 0 0 138 306 288 143 45 29 13 0 0 0 0 0 0 0 0 0 0 0 0 0 0 0 0 0
0 0 0 0 0 0 0 0 0 337 465 429 279 215 169 51 39 61 78 24 7 18 0 0 0 9 0 0 0 0 0 0
0 0 0 0 0 0 0 0 0 105 487 499 572 474 367 276 139 111 242 252 195 207 152 52 44 37 46 38 2 3 0 0
0 0 0 0 0 0 0 0 0 0 1 394 677 698 687 592 382 204 161 264 298 222 226 207 183 177 191 152 148 147 111 79
0 0 0 0 0 0 0 0 0 0 0 1 246 703 813 813 656 375 307 198 99 194 244 249 309 306 326 280 244 231 207 234
0 0 0 0 0 0 0 0 0 0 0 0 0 0 85 447 613 607 423 270 139 111 189 233 286 307 306 406 425 372 361 344
0 0 0 0 0 0 0 0 0 0 0 0 0 0 0 0 2 46 84 27 9 0 0 0 0 31 200 562 572 606 555 495
0 0 0 0 0 0 0 0 0 0 0 0 0 0 0 0 0 0 0 2 11 30 39 4 0 13 422 714 865 799 677 596
0 0 0 0 0 0 0 0 0 0 0 0 0 0 0 0 0 0 0 0 0 0 21 158 235 350 397 548 761 819 819 774
0 0 0 0 0 0 0 0 0 0 0 0 0 0 0 0 0 0 0 0 0 0 0 0 0 0 96 184 154 138 194 360
0 0 0 0 0 0 0 0 0 0 0 0 0 0 0 0 0 0 0 0 0 0 0 0 0 0 0 0 0 16 26 67
0 0 0 0 0 0 0 0 0 0 0 0 0 0 0 0 0 0 0 0 0 0 0 0 0 0 0 0 0 0 0 0
CIN
-0 -0 -143 -521 -606 -750 -0 -0 -0 -0 -0 -0 -0 -0 -0 -0 -0 -0 -0 -0 -0 -0 -0 -0 -0 -0 -0 -0 -0 -0 -0 -0
-0 -0 -0 -102 -561 -617 -717 -0 -0 -0 -0 -0 -0 -0 -0 -0 -0 -0 -0 -0 -0 -0 -0 -0 -0 -0 -0 -0 -0 -0 -0 -0
-0 -0 -0 -0 -419 -542 -592 -575 -0 -0 -0 -0 -0 -0 -0 -0 -0 -0 -0 -0 -0 -0 -0 -0 -0 -0 -0 -0 -0 -0 -0 -0
-0 -0 -0 -0 -0 -507 -516 -570 -551 -0 -0 -0 -0 -0 -0 -0 -0 -0 -0 -0 -0 -0 -0 -0 -0 -0 -0 -0 -0 -0 -0 -0
-0 -0 -0 -0 -0 -473 -482 -505 -578 -114 -0 -0 -0 -0 -0 -0 -0 -0 -0 -0 -0 -0 -0 -0 -0 -0 -0 -0 -0 -0 -0 -0
-0 -0 -0 -0 -0 -0 -420 -463 -499 -572 -45 -0 -0 -0 -0 -0 -0 -0 -0 -0 -0 -0 -0 -0 -0 -0 -0 -0 -0 -0 -0 -0
-0 -0 -0 -0 -0 -0 -0 -353 -468 -528 -596 -739 -0 -0 -0 -0 -0 -0 -0 -0 -0 -0 -0 -0 -0 -0 -0 -0 -0 -0 -0 -0
-0 -0 -0 -0 -0 -0 -0 -0 -442 -466 -516 -602 -674 -733 -708 -0 -0 -0 -0 -0 -0 -0 -0 -0 -0 -0 -0 -0 -0 -0 -0 -0
-0 -0 -0 -0 -0 -0 -0 -0 -0 -392 -416 -475 -560 -618 -645 -694 -700 -680 -687 -713 -650 -650 -0 -0 -0 -682 -0 -0 -0 -0 -0 -0
-0 -0 -0 -0 -0 -0 -0 -0 -0 -471 -256 -275 -304 -327 -389 -478 -569 -613 -548 -556 -627 -610 -595 -633 -556 -510 -490 -481 -66 -68 -0 -0
-0 -0 -0 -0 -0 -0 -0 -0 -0 -0 -24 -223 -168 -170 -209 -254 -285 -374 -442 -425 -339 -362 -407 -439 -400 -371 -353 -364 -375 -433 -460 -468
-0 -0 -0 -0 -0 -0 -0 -0 -0 -0 -0 -65 -290 -99 -85 -103 -105 -153 -197 -266 -126 -160 -128 -184 -247 -234 -258 -271 -316 -316 -331 -360
-0 -0 -0 -0 -0 -0 -0 -0 -0 -0 -0 -0 -0 -29 -385 -120 -98 -100 -136 -140 -85 -94 -126 -98 -91 -142 -121 -136 -172 -236 -261 -246
-0 -0 -0 -0 -0 -0 -0 -0 -0 -0 -0 -0 -0 -0 -0 -0 -310 -357 -187 -106 -13 -36 -0 -0 -0 -218 -38 -100 -83 -114 -137 -185
-0 -0 -0 -0 -0 -0 -0 -0 -0 -0 -0 -0 -0 -0 -0 -0 -0 -0 -0 -12 -43 -106 -21 -84 -0 -30 -34 -48 -28 -29 -85 -130
-0 -0 -0 -0 -0 -0 -0 -0 -0 -0 -0 -0 -0 -0 -0 -0 -0 -0 -0 -0 -0 -0 -58 -29 -30 -36 -59 -41 -12 -23 -47 -53
-0 -0 -0 -0 -0 -0 -0 -0 -0 -0 -0 -0 -0 -0 -0 -0 -0 -0 -0 -0 -0 -0 -0 -0 -0 -0 -80 -80 -125 -199 -226 -143
-0 -0 -0 -0 -0 -0 -0 -0 -0 -0 -0 -0 -0 -0 -0 -0 -0 -0 -0 -0 -0 -0 -0 -0 -0 -0 -0 -0 -0 -373 -412 -349
-0 -0 -0 -0 -0 -0 -0 -0 -0 -0 -0 -0 -0 -0 -0 -0 -0 -0 -0 -0 -0 -0 -0 -0 -0 -0 -0 -0 -0 -0 -0 -0
Wind_Speed
34 32 30 29 26 24 22 21 20 18 17 15 13 13 15 12 14 16 16 19 20 21 19 19 16 18 25 25 27 27 29 29
39 35 32 29 30 30 28 26 24 22 21 19 18 19 16 15 14 15 16 17 18 19 17 17 19 22 23 20 15 21 24 13
42 41 38 31 30 30 31 31 28 26 26 24 25 23 23 21 19 17 18 19 18 18 17 15 15 13 13 13 11 10 11 10
43 40 39 39 35 33 31 31 32 30 28 28 29 29 31 25 22 21 21 19 19 19 18 17 16 15 15 14 13 13 16 16
39 42 41 38 39 38 37 34 33 33 32 31 30 30 31 28 27 26 24 22 21 20 19 19 18 17 18 17 17 17 17 19
35 37 37 38 37 41 42 39 38 36 36 35 34 34 34 36 34 33 29 26 24 22 21 20 20 19 18 18 18 18 19 20
30 31 31 34 34 36 42 43 42 37 35 37 38 36 34 33 35 33 32 29 28 26 25 23 22 21 21 21 21 20 19 21
29 30 30 32 34 35 37 43 43 40 38 36 37 37 37 37 33 33 33 33 32 30 29 28 28 26 25 25 25 25 24 23
30 30 28 30 32 32 33 34 42 41 40 39 37 36 38 41 39 37 35 33 32 31 31 33 33 33 31 29 29 28 27 27
31 32 31 31 31 31 31 29 27 30 36 38 40 41 43 43 45 42 42 40 36 32 31 32 34 35 35 34 34 33 30 29
33 32 32 33 32 32 31 29 26 24 27 32 35 37 40 41 43 46 46 46 44 40 34 31 31 33 33 33 34 33 31 32
34 34 34 32 32 32 32 31 29 27 26 26 29 34 36 39 40 41 43 44 50 46 39 34 33 34 33 34 34 34 34 34
35 35 35 32 32 32 31 31 29 29 27 25 23 23 29 34 37 36 35 39 43 40 40 40 38 35 39 39 39 37 36 36
34 35 34 34 33 32 32 32 31 30 29 26 25 23 22 22 21 25 28 31 36 32 34 36 37 37 45 41 43 40 36 35
37 36 37 37 37 36 34 33 32 32 30 29 27 25 25 25 24 24 25 27 29 28 30 35 45 48 43 44 44 38 34 37
40 41 39 39 39 39 37 38 35 33 33 32 32 31 30 29 30 30 28 27 27 27 25 22 19 20 22 29 33 38 34 37
42 43 43 42 40 40 41 42 42 39 37 38 36 36 36 36 36 35 34 34 32 30 29 28 27 25 25 25 26 27 31 36
42 43 42 43 45 43 44 44 44 43 43 41 39 40 41 40 41 40 39 39 38 38 36 33 31 29 29 32 32 32 32 35
44 45 46 45 44 45 46 45 43 43 45 45 46 46 47 46 46 46 44 43 42 41 40 37 36 35 33 34 34 33 35 35
Wind_Direction
286 275 269 263 255 248 242 239 237 233 245 243 233 222 200 207 199 194 192 188 186 186 185 184 182 184 192 193 200 203 215 219
284 281 274 265 260 254 249 243 237 239 235 231 228 217 236 232 225 214 206 202 198 196 197 194 190 192 195 194 195 200 207 298
282 281 278 269 259 252 250 245 242 235 240 241 253 253 255 251 248 228 214 210 210 210 211 216 210 216 214 214 218 268 276 284
281 282 283 275 263 255 252 247 243 241 239 249 255 260 262 255 244 231 224 226 222 220 226 236 238 234 233 241 243 248 277 286
286 283 282 282 273 262 256 253 248 246 243 246 243 246 251 249 251 253 251 240 233 232 232 233 241 245 247 255 260 262 270 280
294 290 286 285 284 272 261 255 252 249 245 242 246 251 255 260 261 259 254 251 241 238 238 239 237 244 246 250 260 258 267 274
306 303 299 296 294 286 273 258 252 249 245 244 246 247 250 256 258 256 255 253 252 247 244 242 244 245 247 254 259 261 263 272
323 316 312 310 303 299 289 268 254 251 248 247 245 247 250 253 255 255 256 257 255 249 245 249 252 252 257 261 263 267 269 271
332 330 326 324 319 312 307 291 266 255 253 254 254 251 253 256 256 258 257 256 258 259 254 256 258 261 262 265 268 270 272 274
335 339 339 334 332 331 325 313 298 278 261 260 260 259 259 260 259 260 260 261 261 260 260 259 262 264 266 268 270 273 275 277
328 330 337 338 337 337 339 337 322 306 291 270 263 263 262 263 263 261 261 262 262 264 261 261 262 265 266 267 270 273 275 279
322 325 327 329 333 337 339 340 338 332 316 298 282 271 266 264 265 264 266 265 260 260 260 265 265 268 270 269 270 274 277 281
324 324 324 326 326 330 334 334 337 336 332 326 313 301 284 274 270 271 270 266 262 258 260 263 269 272 273 273 274 275 277 281
319 320 322 322 323 322 326 326 326 329 330 330 325 321 313 308 300 290 286 281 276 291 265 268 270 273 282 274 276 278 280 281
325 320 324 325 324 317 318 321 323 322 322 318 322 319 312 311 309 307 304 298 294 296 292 282 273 273 277 273 275 280 284 284
325 322 319 319 321 317 312 314 315 314 315 313 309 309 310 311 306 304 307 310 309 308 308 300 288 290 286 283 283 282 287 289
324 323 319 316 315 315 316 309 308 312 309 306 304 304 304 302 303 303 300 298 303 303 301 299 302 299 295 292 290 292 294 294
322 323 320 320 322 315 312 308 309 306 302 301 302 301 298 299 298 296 297 297 297 297 298 297 296 297 295 292 290 293 294 293
325 321 320 322 319 322 320 314 306 306 305 301 302 301 297 295 293 292 292 294 295 295 294 294 292 292 295 294 294 293 292 291